Location: Unspecified
(0.0000°N, 0.0000°E)
Time: 22:09:31
(UTC+02:00)

H-2A R/B - Visible Passes

Search period start: 21 September 2014 00:00
Search period end: 01 October 2014 00:00
Orbit: 276 x 33601 km, 28.0° (Epoch: 21 September)

Date Brightness Start Highest point End Pass type
(mag) Time Alt. Az. Time Alt. Az. Time Alt. Az.
22 Sep 5.2 05:17:52 12° S 12:11:50 28° NE 14:00:41 10° ENE visible
24 Sep 5.2 06:31:30 10° SSW 06:42:27 51° SE 15:35:09 10° ENE visible
25 Sep 4.1 12:30:00 10° W 21:27:02 75° SW 21:31:50 29° SE visible
27 Sep 8.7 14:10:50 10° WNW 15:26:06 20° WNW 18:10:13 10° WNW visible
27 Sep 4.4 22:19:30 10° WNW 22:43:16 32° SW 22:44:37 30° SSW visible
29 Sep 5.3 07:56:07 10° ENE 11:32:44 23° NE 13:09:41 10° ENE visible
